Year,Month,Day,Hour,Minute,Value (Times are PST for temperature in C)
2016,06,01,00,00,17.00
2016,06,01,00,01,17.00
2016,06,01,00,02,17.00
2016,06,01,00,03,17.00
2016,06,01,00,04,17.00
2016,06,01,00,05,17.00
2016,06,01,00,06,17.00
2016,06,01,00,07,17.00
2016,06,01,00,08,17.00
2016,06,01,00,09,16.90
2016,06,01,00,10,16.90
2016,06,01,00,11,16.90
2016,06,01,00,12,16.90
2016,06,01,00,13,16.90
2016,06,01,00,14,16.90
2016,06,01,00,15,16.90
2016,06,01,00,16,16.90
2016,06,01,00,17,16.90
2016,06,01,00,18,16.90
2016,06,01,00,19,16.90
2016,06,01,00,20,16.90
2016,06,01,00,21,16.90
2016,06,01,00,22,16.80
2016,06,01,00,23,16.80
2016,06,01,00,24,16.80
2016,06,01,00,25,16.80
2016,06,01,00,26,16.80
2016,06,01,00,27,16.80
2016,06,01,00,28,16.80
2016,06,01,00,29,16.80
2016,06,01,00,30,16.80
2016,06,01,00,31,16.80
2016,06,01,00,32,16.70
2016,06,01,00,33,16.70
2016,06,01,00,34,16.70
2016,06,01,00,35,16.80
2016,06,01,00,36,16.70
2016,06,01,00,37,16.70
2016,06,01,00,38,16.70
2016,06,01,00,39,16.70
2016,06,01,00,40,16.70
2016,06,01,00,41,16.70
2016,06,01,00,42,16.70
2016,06,01,00,43,16.70
2016,06,01,00,44,16.70
2016,06,01,00,45,16.70
2016,06,01,00,46,16.70
2016,06,01,00,47,16.70
2016,06,01,00,48,16.70
2016,06,01,00,49,16.60
2016,06,01,00,50,16.60
2016,06,01,00,51,16.60
2016,06,01,00,52,16.60
2016,06,01,00,53,16.60
2016,06,01,00,54,16.60
2016,06,01,00,55,16.50
2016,06,01,00,56,16.50
2016,06,01,00,57,16.50
2016,06,01,00,58,16.40
2016,06,01,00,59,16.40
2016,06,01,01,00,16.40
2016,06,01,01,01,16.40
2016,06,01,01,02,16.30
2016,06,01,01,03,16.30
2016,06,01,01,04,16.30
2016,06,01,01,05,16.30
2016,06,01,01,06,16.20
2016,06,01,01,07,16.20
2016,06,01,01,08,16.20
2016,06,01,01,09,16.20
2016,06,01,01,10,16.20
2016,06,01,01,11,16.20
2016,06,01,01,12,16.10
2016,06,01,01,13,16.10
2016,06,01,01,14,16.10
2016,06,01,01,15,16.10
2016,06,01,01,16,16.10
2016,06,01,01,17,16.00
2016,06,01,01,18,16.00
2016,06,01,01,19,16.00
2016,06,01,01,20,15.90
2016,06,01,01,21,15.90
2016,06,01,01,22,15.90
2016,06,01,01,23,15.90
2016,06,01,01,24,16.00
2016,06,01,01,25,16.00
2016,06,01,01,26,16.10
2016,06,01,01,27,16.20
2016,06,01,01,28,16.30
2016,06,01,01,29,16.30
2016,06,01,01,30,16.40
2016,06,01,01,31,16.40
2016,06,01,01,32,16.40
2016,06,01,01,33,16.30
2016,06,01,01,34,16.30
2016,06,01,01,35,16.30
2016,06,01,01,36,16.30
2016,06,01,01,37,16.30
2016,06,01,01,38,16.30
2016,06,01,01,39,16.20
2016,06,01,01,40,16.20
2016,06,01,01,41,16.20
2016,06,01,01,42,16.20
2016,06,01,01,43,16.20
2016,06,01,01,44,16.20
2016,06,01,01,45,16.20
2016,06,01,01,46,16.20
2016,06,01,01,47,16.20
2016,06,01,01,48,16.10
2016,06,01,01,49,16.10
2016,06,01,01,50,16.10
2016,06,01,01,51,16.10
2016,06,01,01,52,16.10
2016,06,01,01,53,16.10
2016,06,01,01,54,16.10
2016,06,01,01,55,16.10
2016,06,01,01,56,16.10
2016,06,01,01,57,16.10
2016,06,01,01,58,16.10
2016,06,01,01,59,16.10
2016,06,01,02,00,16.10
2016,06,01,02,01,16.10
2016,06,01,02,02,16.10
2016,06,01,02,03,16.10
2016,06,01,02,04,16.10
2016,06,01,02,05,16.10
2016,06,01,02,06,16.10
2016,06,01,02,07,16.10
2016,06,01,02,08,16.10
2016,06,01,02,09,16.10
2016,06,01,02,10,16.10
2016,06,01,02,11,16.10
2016,06,01,02,12,16.10
2016,06,01,02,13,16.10
2016,06,01,02,14,16.10
2016,06,01,02,15,16.00
2016,06,01,02,16,16.00
2016,06,01,02,17,16.00
2016,06,01,02,18,16.00
2016,06,01,02,19,16.00
2016,06,01,02,20,16.00
2016,06,01,02,21,16.00
2016,06,01,02,22,16.00
2016,06,01,02,23,16.00
2016,06,01,02,24,16.00
2016,06,01,02,25,16.00
2016,06,01,02,26,16.00
2016,06,01,02,27,16.00
2016,06,01,02,28,16.00
2016,06,01,02,29,16.00
2016,06,01,02,30,16.00
2016,06,01,02,31,16.00
2016,06,01,02,32,16.00
2016,06,01,02,33,16.00
2016,06,01,02,34,16.00
2016,06,01,02,35,16.00
2016,06,01,02,36,16.00
2016,06,01,02,37,15.90
2016,06,01,02,38,15.90
2016,06,01,02,39,15.90
2016,06,01,02,40,15.90
2016,06,01,02,41,15.90
2016,06,01,02,42,15.90
2016,06,01,02,43,15.90
2016,06,01,02,44,15.90
2016,06,01,02,45,15.90
2016,06,01,02,46,15.90
2016,06,01,02,47,15.90
2016,06,01,02,48,15.90
2016,06,01,02,49,15.90
2016,06,01,02,50,15.90
2016,06,01,02,51,15.90
2016,06,01,02,52,15.90
2016,06,01,02,53,15.90
2016,06,01,02,54,16.00
2016,06,01,02,55,16.00
2016,06,01,02,56,16.00
2016,06,01,02,57,16.00
2016,06,01,02,58,16.10
2016,06,01,02,59,16.10
2016,06,01,03,00,16.10
2016,06,01,03,01,16.10
2016,06,01,03,02,16.10
2016,06,01,03,03,16.10
2016,06,01,03,04,16.10
2016,06,01,03,05,16.10
2016,06,01,03,06,16.10
2016,06,01,03,07,16.10
2016,06,01,03,08,16.10
2016,06,01,03,09,16.10
2016,06,01,03,10,16.10
2016,06,01,03,11,16.20
2016,06,01,03,12,16.20
2016,06,01,03,13,16.30
2016,06,01,03,14,16.30
2016,06,01,03,15,16.40
2016,06,01,03,16,16.60
2016,06,01,03,17,16.70
2016,06,01,03,18,16.80
2016,06,01,03,19,16.90
2016,06,01,03,20,17.00
2016,06,01,03,21,17.10
2016,06,01,03,22,17.20
2016,06,01,03,23,17.30
2016,06,01,03,24,17.30
2016,06,01,03,25,17.40
2016,06,01,03,26,17.40
2016,06,01,03,27,17.50
2016,06,01,03,28,17.50
2016,06,01,03,29,17.50
2016,06,01,03,30,17.60
2016,06,01,03,31,17.60
2016,06,01,03,32,17.60
2016,06,01,03,33,17.60
2016,06,01,03,34,17.60
2016,06,01,03,35,17.60
2016,06,01,03,36,17.60
2016,06,01,03,37,17.50
2016,06,01,03,38,17.50
2016,06,01,03,39,17.50
2016,06,01,03,40,17.50
2016,06,01,03,41,17.40
2016,06,01,03,42,17.40
2016,06,01,03,43,17.40
2016,06,01,03,44,17.40
2016,06,01,03,45,17.30
2016,06,01,03,46,17.30
2016,06,01,03,47,17.30
2016,06,01,03,48,17.30
2016,06,01,03,49,17.30
2016,06,01,03,50,17.30
2016,06,01,03,51,17.30
2016,06,01,03,52,17.30
2016,06,01,03,53,17.20
2016,06,01,03,54,17.20
2016,06,01,03,55,17.10
2016,06,01,03,56,17.10
2016,06,01,03,57,17.10
2016,06,01,03,58,17.10
2016,06,01,03,59,17.00
2016,06,01,04,00,17.00
2016,06,01,04,01,17.00
2016,06,01,04,02,17.00
2016,06,01,04,03,16.90
2016,06,01,04,04,16.90
2016,06,01,04,05,16.90
2016,06,01,04,06,16.90
2016,06,01,04,07,16.80
2016,06,01,04,08,16.80
2016,06,01,04,09,16.80
2016,06,01,04,10,16.70
2016,06,01,04,11,16.70
2016,06,01,04,12,16.70
2016,06,01,04,13,16.70
2016,06,01,04,14,16.60
2016,06,01,04,15,16.60
2016,06,01,04,16,16.60
2016,06,01,04,17,16.50
2016,06,01,04,18,16.50
2016,06,01,04,19,16.40
2016,06,01,04,20,16.40
2016,06,01,04,21,16.40
2016,06,01,04,22,16.40
2016,06,01,04,23,16.40
2016,06,01,04,24,16.30
2016,06,01,04,25,16.30
2016,06,01,04,26,16.30
2016,06,01,04,27,16.30
2016,06,01,04,28,16.30
2016,06,01,04,29,16.30
2016,06,01,04,30,16.30
2016,06,01,04,31,16.20
2016,06,01,04,32,16.20
2016,06,01,04,33,16.20
2016,06,01,04,34,16.20
2016,06,01,04,35,16.20
2016,06,01,04,36,16.20
2016,06,01,04,37,16.20
2016,06,01,04,38,16.10
2016,06,01,04,39,16.10
2016,06,01,04,40,16.10
2016,06,01,04,41,16.10
2016,06,01,04,42,16.10
2016,06,01,04,43,16.10
2016,06,01,04,44,16.10
2016,06,01,04,45,16.10
2016,06,01,04,46,16.00
2016,06,01,04,47,16.00
2016,06,01,04,48,16.00
2016,06,01,04,49,15.90
2016,06,01,04,50,15.90
2016,06,01,04,51,15.90
2016,06,01,04,52,15.90
2016,06,01,04,53,15.90
2016,06,01,04,54,15.80
2016,06,01,04,55,15.80
2016,06,01,04,56,15.80
2016,06,01,04,57,15.80
2016,06,01,04,58,15.80
2016,06,01,04,59,15.80
2016,06,01,05,00,15.80
2016,06,01,05,01,15.80
2016,06,01,05,02,15.80
2016,06,01,05,03,15.70
2016,06,01,05,04,15.70
2016,06,01,05,05,15.70
2016,06,01,05,06,15.70
2016,06,01,05,07,15.70
2016,06,01,05,08,15.70
2016,06,01,05,09,15.70
2016,06,01,05,10,15.60
2016,06,01,05,11,15.60
2016,06,01,05,12,15.60
2016,06,01,05,13,15.60
2016,06,01,05,14,15.50
2016,06,01,05,15,15.50
2016,06,01,05,16,15.50
2016,06,01,05,17,15.50
2016,06,01,05,18,15.40
2016,06,01,05,19,15.40
2016,06,01,05,20,15.40
2016,06,01,05,21,15.40
2016,06,01,05,22,15.40
2016,06,01,05,23,15.40
2016,06,01,05,24,15.40
2016,06,01,05,25,15.40
2016,06,01,05,26,15.40
2016,06,01,05,27,15.30
2016,06,01,05,28,15.30
2016,06,01,05,29,15.30
2016,06,01,05,30,15.20
2016,06,01,05,31,15.20
2016,06,01,05,32,15.20
2016,06,01,05,33,15.20
2016,06,01,05,34,15.10
2016,06,01,05,35,15.10
2016,06,01,05,36,15.10
2016,06,01,05,37,15.10
2016,06,01,05,38,15.10
2016,06,01,05,39,15.10
2016,06,01,05,40,15.10
2016,06,01,05,41,15.00
2016,06,01,05,42,15.00
2016,06,01,05,43,15.00
2016,06,01,05,44,15.00
2016,06,01,05,45,15.00
2016,06,01,05,46,15.00
2016,06,01,05,47,15.00
2016,06,01,05,48,15.00
2016,06,01,05,49,15.00
2016,06,01,05,50,15.00
2016,06,01,05,51,15.00
2016,06,01,05,52,15.00
2016,06,01,05,53,15.10
2016,06,01,05,54,15.10
2016,06,01,05,55,15.10
2016,06,01,05,56,15.10
2016,06,01,05,57,15.10
2016,06,01,05,58,15.10
2016,06,01,05,59,15.10
2016,06,01,06,00,15.20
2016,06,01,06,01,15.20
2016,06,01,06,02,15.20
2016,06,01,06,03,15.20
2016,06,01,06,04,15.20
2016,06,01,06,05,15.20
2016,06,01,06,06,15.20
2016,06,01,06,07,15.20
2016,06,01,06,08,15.30
2016,06,01,06,09,15.30
2016,06,01,06,10,15.30
2016,06,01,06,11,15.30
2016,06,01,06,12,15.30
2016,06,01,06,13,15.30
2016,06,01,06,14,15.30
2016,06,01,06,15,15.30
2016,06,01,06,16,15.30
2016,06,01,06,17,15.40
2016,06,01,06,18,15.40
2016,06,01,06,19,15.40
2016,06,01,06,20,15.40
2016,06,01,06,21,15.40
2016,06,01,06,22,15.40
2016,06,01,06,23,15.40
2016,06,01,06,24,15.40
2016,06,01,06,25,15.40
2016,06,01,06,26,15.40
2016,06,01,06,27,15.40
2016,06,01,06,28,15.40
2016,06,01,06,29,15.40
2016,06,01,06,30,15.40
2016,06,01,06,31,15.40
2016,06,01,06,32,15.50
2016,06,01,06,33,15.40
2016,06,01,06,34,15.40
2016,06,01,06,35,15.40
2016,06,01,06,36,15.50
2016,06,01,06,37,15.50
2016,06,01,06,38,15.50
2016,06,01,06,39,15.50
2016,06,01,06,40,15.40
2016,06,01,06,41,15.40
2016,06,01,06,42,15.40
2016,06,01,06,43,15.40
2016,06,01,06,44,15.40
2016,06,01,06,45,15.40
2016,06,01,06,46,15.40
2016,06,01,06,47,15.40
2016,06,01,06,48,15.40
2016,06,01,06,49,15.30
2016,06,01,06,50,15.40
2016,06,01,06,51,15.40
2016,06,01,06,52,15.40
2016,06,01,06,53,15.30
2016,06,01,06,54,15.30
2016,06,01,06,55,15.30
2016,06,01,06,56,15.30
2016,06,01,06,57,15.30
2016,06,01,06,58,15.30
2016,06,01,06,59,15.30
2016,06,01,07,00,15.30
2016,06,01,07,01,15.20
2016,06,01,07,02,15.20
2016,06,01,07,03,15.20
2016,06,01,07,04,15.20
2016,06,01,07,05,15.20
2016,06,01,07,06,15.20
2016,06,01,07,07,15.30
2016,06,01,07,08,15.40
2016,06,01,07,09,15.50
2016,06,01,07,10,15.60
2016,06,01,07,11,15.70
2016,06,01,07,12,15.80
2016,06,01,07,13,15.80
2016,06,01,07,14,15.80
2016,06,01,07,15,15.90
2016,06,01,07,16,15.90
2016,06,01,07,17,15.90
2016,06,01,07,18,15.90
2016,06,01,07,19,15.90
2016,06,01,07,20,15.90
2016,06,01,07,21,15.90
2016,06,01,07,22,15.90
2016,06,01,07,23,15.90
2016,06,01,07,24,15.90
2016,06,01,07,25,15.90
2016,06,01,07,26,16.00
2016,06,01,07,27,16.00
2016,06,01,07,28,16.00
2016,06,01,07,29,16.10
2016,06,01,07,30,16.10
2016,06,01,07,31,16.10
2016,06,01,07,32,16.10
2016,06,01,07,33,16.10
2016,06,01,07,34,16.20
2016,06,01,07,35,16.20
2016,06,01,07,36,16.20
2016,06,01,07,37,16.20
2016,06,01,07,38,16.20
2016,06,01,07,39,16.20
2016,06,01,07,40,16.20
2016,06,01,07,41,16.20
2016,06,01,07,42,16.20
2016,06,01,07,43,16.20
2016,06,01,07,44,16.20
2016,06,01,07,45,16.30
2016,06,01,07,46,16.30
2016,06,01,07,47,16.30
2016,06,01,07,48,16.30
2016,06,01,07,49,16.30
2016,06,01,07,50,16.30
2016,06,01,07,51,16.30
2016,06,01,07,52,16.30
2016,06,01,07,53,16.20
2016,06,01,07,54,16.20
2016,06,01,07,55,16.20
2016,06,01,07,56,16.20
2016,06,01,07,57,16.20
2016,06,01,07,58,16.10
2016,06,01,07,59,16.10
2016,06,01,08,00,16.10
2016,06,01,08,01,16.10
2016,06,01,08,02,16.10
2016,06,01,08,03,16.10
2016,06,01,08,04,16.10
2016,06,01,08,05,16.00
2016,06,01,08,06,16.00
2016,06,01,08,07,16.00
2016,06,01,08,08,16.00
2016,06,01,08,09,16.00
2016,06,01,08,10,16.00
2016,06,01,08,11,16.00
2016,06,01,08,12,16.10
2016,06,01,08,13,16.10
2016,06,01,08,14,16.10
2016,06,01,08,15,16.10
2016,06,01,08,16,16.20
2016,06,01,08,17,16.20
2016,06,01,08,18,16.30
2016,06,01,08,19,16.40
2016,06,01,08,20,16.40
2016,06,01,08,21,16.50
2016,06,01,08,22,16.60
2016,06,01,08,23,16.70
2016,06,01,08,24,16.80
2016,06,01,08,25,16.90
2016,06,01,08,26,17.00
2016,06,01,08,27,17.10
2016,06,01,08,28,17.20
2016,06,01,08,29,17.30
2016,06,01,08,30,17.30
2016,06,01,08,31,17.40
2016,06,01,08,32,17.50
2016,06,01,08,33,17.50
2016,06,01,08,34,17.60
2016,06,01,08,35,17.60
2016,06,01,08,36,17.70
2016,06,01,08,37,17.70
2016,06,01,08,38,17.70
2016,06,01,08,39,17.80
2016,06,01,08,40,17.80
2016,06,01,08,41,17.80
2016,06,01,08,42,17.80
2016,06,01,08,43,17.90
2016,06,01,08,44,17.90
2016,06,01,08,45,17.90
2016,06,01,08,46,17.90
2016,06,01,08,47,17.90
2016,06,01,08,48,17.90
2016,06,01,08,49,18.00
2016,06,01,08,50,18.00
2016,06,01,08,51,18.00
2016,06,01,08,52,18.00
2016,06,01,08,53,18.10
2016,06,01,08,54,18.10
2016,06,01,08,55,18.10
2016,06,01,08,56,18.10
2016,06,01,08,57,18.10
2016,06,01,08,58,18.20
2016,06,01,08,59,18.20
2016,06,01,09,00,18.20
2016,06,01,09,01,18.20
2016,06,01,09,02,18.30
2016,06,01,09,03,18.30
2016,06,01,09,04,18.30
2016,06,01,09,05,18.30
2016,06,01,09,06,18.40
2016,06,01,09,07,18.40
2016,06,01,09,08,18.50
2016,06,01,09,09,18.50
2016,06,01,09,10,18.60
2016,06,01,09,11,18.60
2016,06,01,09,12,18.60
2016,06,01,09,13,18.60
2016,06,01,09,14,18.70
2016,06,01,09,15,18.70
2016,06,01,09,16,18.70
2016,06,01,09,17,18.70
2016,06,01,09,18,18.70
2016,06,01,09,19,18.70
2016,06,01,09,20,18.50
2016,06,01,09,21,18.30
2016,06,01,09,22,18.20
2016,06,01,09,23,18.00
2016,06,01,09,24,17.80
2016,06,01,09,25,17.60
2016,06,01,09,26,17.50
2016,06,01,09,27,17.40
2016,06,01,09,28,17.30
2016,06,01,09,29,17.20
2016,06,01,09,30,17.20
2016,06,01,09,31,17.20
2016,06,01,09,32,17.20
2016,06,01,09,33,17.20
2016,06,01,09,34,17.20
2016,06,01,09,35,17.20
2016,06,01,09,36,17.10
2016,06,01,09,37,17.10
2016,06,01,09,38,17.10
2016,06,01,09,39,17.10
2016,06,01,09,40,17.10
2016,06,01,09,41,17.00
2016,06,01,09,42,17.00
2016,06,01,09,43,16.90
2016,06,01,09,44,16.90
2016,06,01,09,45,16.90
2016,06,01,09,46,16.90
2016,06,01,09,47,16.80
2016,06,01,09,48,16.80
2016,06,01,09,49,16.90
2016,06,01,09,50,16.90
2016,06,01,09,51,16.90
2016,06,01,09,52,16.90
2016,06,01,09,53,16.90
2016,06,01,09,54,16.90
2016,06,01,09,55,16.90
2016,06,01,09,56,16.90
2016,06,01,09,57,16.90
2016,06,01,09,58,17.00
2016,06,01,09,59,17.10
2016,06,01,10,00,17.10
2016,06,01,10,01,17.20
2016,06,01,10,02,17.20
2016,06,01,10,03,17.30
2016,06,01,10,04,17.30
2016,06,01,10,05,17.30
2016,06,01,10,06,17.40
2016,06,01,10,07,17.40
2016,06,01,10,08,17.40
2016,06,01,10,09,17.40
2016,06,01,10,10,17.50
2016,06,01,10,11,17.50
2016,06,01,10,12,17.60
2016,06,01,10,13,17.60
2016,06,01,10,14,17.70
2016,06,01,10,15,17.70
2016,06,01,10,16,17.80
2016,06,01,10,17,17.90
2016,06,01,10,18,18.00
2016,06,01,10,19,18.10
2016,06,01,10,20,18.10
2016,06,01,10,21,18.20
2016,06,01,10,22,18.20
2016,06,01,10,23,18.20
2016,06,01,10,24,18.30
2016,06,01,10,25,18.30
2016,06,01,10,26,18.30
2016,06,01,10,27,18.40
2016,06,01,10,28,18.40
2016,06,01,10,29,18.50
2016,06,01,10,30,18.60
2016,06,01,10,31,18.70
2016,06,01,10,32,18.80
2016,06,01,10,33,18.80
2016,06,01,10,34,18.90
2016,06,01,10,35,19.00
2016,06,01,10,36,19.10
2016,06,01,10,37,19.20
2016,06,01,10,38,19.30
2016,06,01,10,39,19.40
2016,06,01,10,40,19.40
2016,06,01,10,41,19.50
2016,06,01,10,42,19.50
2016,06,01,10,43,19.50
2016,06,01,10,44,19.50
2016,06,01,10,45,19.40
2016,06,01,10,46,19.40
2016,06,01,10,47,19.40
2016,06,01,10,48,19.40
2016,06,01,10,49,19.40
2016,06,01,10,50,19.40
2016,06,01,10,51,19.40
2016,06,01,10,52,19.40
2016,06,01,10,53,19.40
2016,06,01,10,54,19.40
2016,06,01,10,55,19.40
2016,06,01,10,56,19.30
2016,06,01,10,57,19.30
2016,06,01,10,58,19.30
2016,06,01,10,59,19.30
2016,06,01,11,00,19.30
2016,06,01,11,01,19.30
2016,06,01,11,02,19.40
2016,06,01,11,03,19.40
2016,06,01,11,04,19.40
2016,06,01,11,05,19.40
2016,06,01,11,06,19.40
2016,06,01,11,07,19.40
2016,06,01,11,08,19.50
2016,06,01,11,09,19.50
2016,06,01,11,10,19.60
2016,06,01,11,11,19.60
2016,06,01,11,12,19.70
2016,06,01,11,13,19.70
2016,06,01,11,14,19.60
2016,06,01,11,15,19.60
2016,06,01,11,16,19.60
2016,06,01,11,17,19.60
2016,06,01,11,18,19.60
2016,06,01,11,19,19.70
2016,06,01,11,20,19.80
2016,06,01,11,21,20.00
2016,06,01,11,22,20.10
2016,06,01,11,23,20.20
2016,06,01,11,24,20.30
2016,06,01,11,25,20.40
2016,06,01,11,26,20.50
2016,06,01,11,27,20.50
2016,06,01,11,28,20.70
2016,06,01,11,29,20.70
2016,06,01,11,30,20.80
2016,06,01,11,31,20.90
2016,06,01,11,32,21.00
2016,06,01,11,33,21.10
2016,06,01,11,34,21.10
2016,06,01,11,35,21.10
2016,06,01,11,36,21.10
2016,06,01,11,37,21.20
2016,06,01,11,38,21.20
2016,06,01,11,39,21.20
2016,06,01,11,40,21.20
2016,06,01,11,41,21.20
2016,06,01,11,42,21.20
2016,06,01,11,43,21.20
2016,06,01,11,44,21.20
2016,06,01,11,45,21.20
2016,06,01,11,46,21.30
2016,06,01,11,47,21.40
2016,06,01,11,48,21.40
2016,06,01,11,49,21.40
2016,06,01,11,50,21.50
2016,06,01,11,51,21.50
2016,06,01,11,52,21.60
2016,06,01,11,53,21.60
2016,06,01,11,54,21.70
2016,06,01,11,55,21.80
2016,06,01,11,56,21.80
2016,06,01,11,57,21.80
2016,06,01,11,58,21.80
2016,06,01,11,59,21.80
2016,06,01,12,00,21.80
2016,06,01,12,01,21.80
2016,06,01,12,02,21.80
2016,06,01,12,03,21.80
2016,06,01,12,04,21.80
2016,06,01,12,05,21.70
2016,06,01,12,06,21.60
2016,06,01,12,07,21.60
2016,06,01,12,08,21.50
2016,06,01,12,09,21.50
2016,06,01,12,10,21.50
2016,06,01,12,11,21.50
2016,06,01,12,12,21.50
2016,06,01,12,13,21.50
2016,06,01,12,14,21.50
2016,06,01,12,15,21.60
2016,06,01,12,16,21.50
2016,06,01,12,17,21.50
2016,06,01,12,18,21.50
2016,06,01,12,19,21.40
2016,06,01,12,20,21.40
2016,06,01,12,21,21.40
2016,06,01,12,22,21.40
2016,06,01,12,23,21.50
2016,06,01,12,24,21.60
2016,06,01,12,25,21.70
2016,06,01,12,26,21.70
2016,06,01,12,27,21.70
2016,06,01,12,28,21.70
2016,06,01,12,29,21.80
2016,06,01,12,30,21.90
2016,06,01,12,31,22.00
2016,06,01,12,32,22.10
2016,06,01,12,33,22.20
2016,06,01,12,34,22.20
2016,06,01,12,35,22.20
2016,06,01,12,36,22.20
2016,06,01,12,37,22.30
2016,06,01,12,38,22.30
2016,06,01,12,39,22.30
2016,06,01,12,40,22.30
2016,06,01,12,41,22.30
2016,06,01,12,42,22.30
2016,06,01,12,43,22.30
2016,06,01,12,44,22.30
2016,06,01,12,45,22.20
2016,06,01,12,46,22.30
2016,06,01,12,47,22.30
2016,06,01,12,48,22.30
2016,06,01,12,49,22.30
2016,06,01,12,50,22.20
2016,06,01,12,51,22.20
2016,06,01,12,52,22.10
2016,06,01,12,53,22.10
2016,06,01,12,54,22.10
2016,06,01,12,55,22.20
2016,06,01,12,56,22.30
2016,06,01,12,57,22.30
2016,06,01,12,58,22.30
2016,06,01,12,59,22.30
2016,06,01,13,00,22.30
2016,06,01,13,01,22.30
2016,06,01,13,02,22.30
2016,06,01,13,03,22.20
2016,06,01,13,04,22.20
2016,06,01,13,05,22.20
2016,06,01,13,06,22.30
2016,06,01,13,07,22.30
2016,06,01,13,08,22.30
2016,06,01,13,09,22.40
2016,06,01,13,10,22.40
2016,06,01,13,11,22.40
2016,06,01,13,12,22.40
2016,06,01,13,13,22.30
2016,06,01,13,14,22.10
2016,06,01,13,15,22.10
2016,06,01,13,16,22.10
2016,06,01,13,17,22.10
2016,06,01,13,18,22.10
2016,06,01,13,19,22.20
2016,06,01,13,20,22.30
2016,06,01,13,21,22.30
2016,06,01,13,22,22.40
2016,06,01,13,23,22.50
2016,06,01,13,24,22.60
2016,06,01,13,25,22.70
2016,06,01,13,26,22.80
2016,06,01,13,27,22.80
2016,06,01,13,28,22.80
2016,06,01,13,29,22.80
2016,06,01,13,30,22.80
2016,06,01,13,31,22.70
2016,06,01,13,32,22.70
2016,06,01,13,33,22.70
2016,06,01,13,34,22.70
2016,06,01,13,35,22.70
2016,06,01,13,36,22.60
2016,06,01,13,37,22.40
2016,06,01,13,38,22.30
2016,06,01,13,39,22.30
2016,06,01,13,40,22.20
2016,06,01,13,41,22.20
2016,06,01,13,42,22.20
2016,06,01,13,43,22.10
2016,06,01,13,44,22.10
2016,06,01,13,45,22.10
2016,06,01,13,46,22.00
2016,06,01,13,47,22.00
2016,06,01,13,48,22.00
2016,06,01,13,49,22.00
2016,06,01,13,50,22.00
2016,06,01,13,51,22.00
2016,06,01,13,52,21.90
2016,06,01,13,53,21.80
2016,06,01,13,54,21.80
2016,06,01,13,55,21.70
2016,06,01,13,56,21.60
2016,06,01,13,57,21.50
2016,06,01,13,58,21.50
2016,06,01,13,59,21.40
2016,06,01,14,00,21.40
2016,06,01,14,01,21.50
2016,06,01,14,02,21.50
2016,06,01,14,03,21.50
2016,06,01,14,04,21.50
2016,06,01,14,05,21.50
2016,06,01,14,06,21.40
2016,06,01,14,07,21.30
2016,06,01,14,08,21.20
2016,06,01,14,09,21.10
2016,06,01,14,10,21.00
2016,06,01,14,11,20.90
2016,06,01,14,12,20.90
2016,06,01,14,13,20.80
2016,06,01,14,14,20.90
2016,06,01,14,15,20.80
2016,06,01,14,16,20.80
2016,06,01,14,17,20.80
2016,06,01,14,18,20.80
2016,06,01,14,19,20.80
2016,06,01,14,20,20.90
2016,06,01,14,21,20.90
2016,06,01,14,22,21.00
2016,06,01,14,23,21.00
2016,06,01,14,24,21.00
2016,06,01,14,25,21.00
2016,06,01,14,26,20.90
2016,06,01,14,27,20.90
2016,06,01,14,28,20.80
2016,06,01,14,29,20.80
2016,06,01,14,30,20.70
2016,06,01,14,31,20.70
2016,06,01,14,32,20.80
2016,06,01,14,33,20.80
2016,06,01,14,34,20.80
2016,06,01,14,35,20.90
2016,06,01,14,36,20.90
2016,06,01,14,37,21.00
2016,06,01,14,38,21.00
2016,06,01,14,39,21.00
2016,06,01,14,40,20.90
2016,06,01,14,41,20.80
2016,06,01,14,42,20.70
2016,06,01,14,43,20.70
2016,06,01,14,44,20.60
2016,06,01,14,45,20.60
2016,06,01,14,46,20.60
2016,06,01,14,47,20.60
2016,06,01,14,48,20.60
2016,06,01,14,49,20.60
2016,06,01,14,50,20.70
2016,06,01,14,51,20.70
2016,06,01,14,52,20.70
2016,06,01,14,53,20.70
2016,06,01,14,54,20.70
2016,06,01,14,55,20.70
2016,06,01,14,56,20.70
2016,06,01,14,57,20.60
2016,06,01,14,58,20.60
2016,06,01,14,59,20.50
2016,06,01,15,00,20.50
2016,06,01,15,01,20.40
2016,06,01,15,02,20.30
2016,06,01,15,03,20.30
2016,06,01,15,04,20.20
2016,06,01,15,05,20.20
2016,06,01,15,06,20.20
2016,06,01,15,07,20.20
2016,06,01,15,08,20.20
2016,06,01,15,09,20.20
2016,06,01,15,10,20.20
2016,06,01,15,11,20.20
2016,06,01,15,12,20.20
2016,06,01,15,13,20.10
2016,06,01,15,14,20.10
2016,06,01,15,15,20.10
2016,06,01,15,16,20.10
2016,06,01,15,17,20.00
2016,06,01,15,18,20.00
2016,06,01,15,19,20.00
2016,06,01,15,20,20.00
2016,06,01,15,21,20.00
2016,06,01,15,22,20.00
2016,06,01,15,23,20.00
2016,06,01,15,24,20.00
2016,06,01,15,25,20.00
2016,06,01,15,26,20.00
2016,06,01,15,27,19.90
2016,06,01,15,28,19.80
2016,06,01,15,29,19.80
2016,06,01,15,30,19.70
2016,06,01,15,31,19.70
2016,06,01,15,32,19.70
2016,06,01,15,33,19.70
2016,06,01,15,34,19.80
2016,06,01,15,35,19.80
2016,06,01,15,36,19.80
2016,06,01,15,37,19.80
2016,06,01,15,38,19.80
2016,06,01,15,39,19.70
2016,06,01,15,40,19.70
2016,06,01,15,41,19.70
2016,06,01,15,42,19.70
2016,06,01,15,43,19.70
2016,06,01,15,44,19.60
2016,06,01,15,45,19.60
2016,06,01,15,46,19.60
2016,06,01,15,47,19.60
2016,06,01,15,48,19.50
2016,06,01,15,49,19.50
2016,06,01,15,50,19.40
2016,06,01,15,51,19.40
2016,06,01,15,52,19.40
2016,06,01,15,53,19.40
2016,06,01,15,54,19.40
2016,06,01,15,55,19.40
2016,06,01,15,56,19.40
2016,06,01,15,57,19.40
2016,06,01,15,58,19.40
2016,06,01,15,59,19.30
2016,06,01,16,00,19.40
2016,06,01,16,01,19.40
2016,06,01,16,02,19.40
2016,06,01,16,03,19.40
2016,06,01,16,04,19.50
2016,06,01,16,05,19.50
2016,06,01,16,06,19.50
2016,06,01,16,07,19.50
2016,06,01,16,08,19.50
2016,06,01,16,09,19.50
2016,06,01,16,10,19.40
2016,06,01,16,11,19.40
2016,06,01,16,12,19.40
2016,06,01,16,13,19.40
2016,06,01,16,14,19.40
2016,06,01,16,15,19.40
2016,06,01,16,16,19.30
2016,06,01,16,17,19.30
2016,06,01,16,18,19.30
2016,06,01,16,19,19.30
2016,06,01,16,20,19.30
2016,06,01,16,21,19.30
2016,06,01,16,22,19.20
2016,06,01,16,23,19.20
2016,06,01,16,24,19.20
2016,06,01,16,25,19.20
2016,06,01,16,26,19.20
2016,06,01,16,27,19.20
2016,06,01,16,28,19.20
2016,06,01,16,29,19.20
2016,06,01,16,30,19.30
2016,06,01,16,31,19.30
2016,06,01,16,32,19.30
2016,06,01,16,33,19.30
2016,06,01,16,34,19.30
2016,06,01,16,35,19.30
2016,06,01,16,36,19.40
2016,06,01,16,37,19.40
2016,06,01,16,38,19.50
2016,06,01,16,39,19.50
2016,06,01,16,40,19.50
2016,06,01,16,41,19.40
2016,06,01,16,42,19.50
2016,06,01,16,43,19.50
2016,06,01,16,44,19.50
2016,06,01,16,45,19.50
2016,06,01,16,46,19.50
2016,06,01,16,47,19.50
2016,06,01,16,48,19.40
2016,06,01,16,49,19.40
2016,06,01,16,50,19.40
2016,06,01,16,51,19.30
2016,06,01,16,52,19.40
2016,06,01,16,53,19.40
2016,06,01,16,54,19.40
2016,06,01,16,55,19.50
2016,06,01,16,56,19.50
2016,06,01,16,57,19.60
2016,06,01,16,58,19.60
2016,06,01,16,59,19.70
2016,06,01,17,00,19.70
2016,06,01,17,01,19.80
2016,06,01,17,02,19.80
2016,06,01,17,03,19.90
2016,06,01,17,04,19.90
2016,06,01,17,05,19.90
2016,06,01,17,06,19.90
2016,06,01,17,07,19.90
2016,06,01,17,08,19.90
2016,06,01,17,09,19.80
2016,06,01,17,10,19.80
2016,06,01,17,11,19.80
2016,06,01,17,12,19.70
2016,06,01,17,13,19.70
2016,06,01,17,14,19.70
2016,06,01,17,15,19.60
2016,06,01,17,16,19.60
2016,06,01,17,17,19.60
2016,06,01,17,18,19.60
2016,06,01,17,19,19.50